This demonstration page uses our WeatherBlox Daily Observations layout. Learn more.

Left ArrowRight Arrow

Hourly Observations for June 29, 2022

Temp ( °F °C ) Dew Point ( °F °C ) Humidity (%) Winds ( mph kmh ) Pressure ( in mb ) Visibility ( mi km ) Precip ( " mm )
12:53 am 00:53 Clear 78 25.6 39 3.9 25 25 NNE 3 6 29.88 1012 10 16 0.00 0.00
1:53 am 01:53 Clear 73 22.8 41 5 32 32 Calm 29.89 1012 10 16 0.00 0.00
2:53 am 02:53 Clear 72 22.2 41 5 33 33 Calm 29.91 1013 10 16 0.00 0.00
3:53 am 03:53 Clear 67 19.4 42 5.6 41 41 Calm 29.91 1013 10 16 0.00 0.00
4:53 am 04:53 Clear 67 19.4 42 5.6 41 41 NE 3 6 29.92 1013 10 16 0.00 0.00
5:53 am 05:53 Sunny 64 17.8 42 5.6 45 45 N 3 6 29.93 1014 10 16 0.00 0.00
6:53 am 06:53 Sunny 67 19.4 44 6.7 44 44 Calm 29.94 1014 10 16 0.00 0.00
7:53 am 07:53 Mostly Sunny 76 24.4 42 5.6 30 30 Calm 29.94 1014 10 16 0.00 0.00
8:53 am 08:53 Sunny 84 28.9 40 4.4 21 21 N 7 11 29.93 1014 10 16 0.00 0.00
9:53 am 09:53 Sunny 87 30.6 39 3.9 18 18 VRB 3 6 29.93 1014 10 16 0.00 0.00
10:53 am 10:53 Sunny 91 32.8 36 2.2 14 14 NE 6 9 29.91 1013 10 16 0.00 0.00
11:53 am 11:53 Sunny 93 33.9 34 1.1 12 12 Calm 29.91 1013 10 16 0.00 0.00
12:53 pm 12:53 Sunny 95 35 28 -2.2 9 9 Calm 29.90 1013 10 16 0.00 0.00
1:53 pm 13:53 Sunny 96 35.6 19 -7.2 6 6 VRB 7 11 29.89 1012 10 16 0.00 0.00
2:53 pm 14:53 Sunny 98 36.7 20 -6.7 6 6 SW 8 13 29.87 1012 10 16 0.00 0.00
3:53 pm 15:53 Sunny 98 36.7 20 -6.7 6 6 S 9 15 29.85 1011 10 16 0.00 0.00
4:53 pm 16:53 Sunny 99 37.2 28 -2.2 8 8 SSE 13 20 29.84 1010 10 16 0.00 0.00
5:53 pm 17:53 Sunny 98 36.7 23 -5 7 7 SSE 14 22 29.83 1010 10 16 0.00 0.00
6:53 pm 18:53 Sunny 97 36.1 21 -6.1 6 6 S 15 24 29.82 1010 10 16 0.00 0.00
7:53 pm 19:53 Sunny 94 34.4 19 -7.2 6 6 S 12 19 29.83 1010 10 16 0.00 0.00
8:53 pm 20:53 Clear 88 31.1 21 -6.1 8 8 S 8 13 29.83 1010 10 16 0.00 0.00
9:53 pm 21:53 Clear 83 28.3 39 3.9 21 21 SSE 6 9 29.85 1011 10 16 0.00 0.00
10:53 pm 22:53 Clear 79 26.1 36 2.2 21 21 Calm 29.88 1012 10 16 0.00 0.00
11:53 pm 23:53 Clear 77 25 36 2.2 23 23 NNE 3 6 29.89 1012 10 16 0.00 0.00

Powered by AerisWeather